Weather reports worldwide

Advertisment
Ferrara, Italy (16138): temperature & dewpoint: 18.06.2018 11:00:00 - 24.06.2018 11:00:00 (CEST)Ferrara, Italy (16138): wind speed: 18.06.2018 11:00:00 - 24.06.2018 11:00:00 (CEST)Ferrara, Italy (16138): wind direction: 18.06.2018 11:00:00 - 24.06.2018 11:00:00 (CEST)Ferrara, Italy (16138): reduced air pressure: 18.06.2018 11:00:00 - 24.06.2018 11:00:00 (CEST)Ferrara, Italy (16138): visibility: 18.06.2018 11:00:00 - 24.06.2018 11:00:00 (CEST)
Date & Time tt [°C] td [°C] ff [km/h] ff [kn] dd ppp [hPa] vv [km]
24.06.2018 11:00:00 23,0 14,3 13 7 SSE 1018,6 30
24.06.2018 10:00:00 22,0 14,0 8 4 SE - 10
24.06.2018 09:00:00 18,0 13,0 0 0 N - 10
24.06.2018 08:00:00 16,4 11,8 0 0 N 1018,5 30
24.06.2018 07:00:00 - - - - - - -
24.06.2018 06:00:00 - - - - - - -
24.06.2018 05:00:00 - - - - - - -
24.06.2018 04:00:00 - - - - - - -
24.06.2018 03:00:00 - - - - - - -
24.06.2018 02:00:00 - - - - - - -
24.06.2018 01:00:00 - - - - - - -
24.06.2018 00:00:00 - - - - - - -
23.06.2018 23:00:00 - - - - - - -
23.06.2018 22:00:00 - - - - - - -
23.06.2018 21:00:00 - - - - - - -
23.06.2018 20:00:00 22,0 8,5 13 7 SE 1018,1 30
23.06.2018 19:00:00 23,0 10,0 9 5 SE - 10
23.06.2018 18:00:00 24,0 10,0 11 6 NNW - 10
23.06.2018 17:00:00 25,0 10,5 11 6 W 1019,0 30
23.06.2018 16:00:00 24,0 10,0 9 5 SE - 10
23.06.2018 15:00:00 25,0 12,0 11 6 SSE - 10
23.06.2018 14:00:00 24,8 11,7 11 6 WNW 1020,0 30
23.06.2018 13:00:00 25,0 12,0 9 5 WNW - 10
23.06.2018 12:00:00 24,0 12,0 11 6 ESE - 10
23.06.2018 11:00:00 24,0 12,0 8 4 E 1020,7 30
23.06.2018 10:00:00 23,0 13,0 11 6 ESE - 10
23.06.2018 09:00:00 20,0 15,0 4 2 NE - 10
23.06.2018 08:00:00 17,8 13,7 0 0 N 1020,3 30
23.06.2018 07:00:00 - - - - - - -
23.06.2018 06:00:00 - - - - - - -
23.06.2018 05:00:00 - - - - - - -
23.06.2018 04:00:00 - - - - - - -
23.06.2018 03:00:00 - - - - - - -
23.06.2018 02:00:00 - - - - - - -
23.06.2018 01:00:00 - - - - - - -
23.06.2018 00:00:00 - - - - - - -
22.06.2018 23:00:00 - - - - - - -
22.06.2018 22:00:00 - - - - - - -
22.06.2018 21:00:00 - - - - - - -
22.06.2018 20:00:00 21,0 15,3 11 6 N 1014,8 20
22.06.2018 19:00:00 21,0 16,0 9 5 ENE - 10
22.06.2018 18:00:00 22,0 17,0 9 5 NW - 10
22.06.2018 17:00:00 22,0 17,2 15 8 E 1014,0 20
22.06.2018 16:00:00 22,0 18,0 15 8 ENE - 10
22.06.2018 15:00:00 24,0 19,0 11 6 SE - 10
22.06.2018 14:00:00 24,4 19,7 9 5 S 1013,5 18
22.06.2018 13:00:00 22,0 18,0 9 5 NNE - 10
22.06.2018 12:00:00 - - - - - - -
22.06.2018 11:00:00 22,2 19,4 11 6 N 1012,7 15
22.06.2018 10:00:00 22,0 21,0 5 3 W - 10
22.06.2018 09:00:00 22,0 20,0 8 4 W - 10
22.06.2018 08:00:00 22,4 19,4 0 0 N 1010,8 10
22.06.2018 07:00:00 - - - - - - -
22.06.2018 06:00:00 - - - - - - -
22.06.2018 05:00:00 - - - - - - -
22.06.2018 04:00:00 - - - - - - -
22.06.2018 03:00:00 - - - - - - -
22.06.2018 02:00:00 - - - - - - -
22.06.2018 01:00:00 - - - - - - -
22.06.2018 00:00:00 - - - - - - -
21.06.2018 23:00:00 - - - - - - -
21.06.2018 22:00:00 - - - - - - -
21.06.2018 21:00:00 - - - - - - -
21.06.2018 20:00:00 30,8 17,9 2 1 SSW 1011,2 20
21.06.2018 19:00:00 31,0 18,0 2 1 SSW - 10
21.06.2018 18:00:00 33,0 18,0 5 3 S - 10
21.06.2018 17:00:00 33,0 18,8 8 4 W 1012,5 20
21.06.2018 16:00:00 33,0 19,0 8 4 E - 10
21.06.2018 15:00:00 33,0 20,0 8 4 ENE - 10
21.06.2018 14:00:00 32,0 19,3 8 4 S 1014,9 20
21.06.2018 13:00:00 31,0 19,0 5 3 SE - 10
21.06.2018 12:00:00 30,0 19,0 5 3 SSE - 10
21.06.2018 11:00:00 29,6 19,3 2 1 SW 1016,2 20
21.06.2018 10:00:00 27,0 20,0 2 1 ESE - 10
21.06.2018 09:00:00 24,0 20,0 4 2 SSW - 10
21.06.2018 08:00:00 22,0 18,4 0 0 N 1016,9 10
21.06.2018 07:00:00 - - - - - - -
21.06.2018 06:00:00 - - - - - - -
21.06.2018 05:00:00 - - - - - - -
21.06.2018 04:00:00 - - - - - - -
21.06.2018 03:00:00 - - - - - - -
21.06.2018 02:00:00 - - - - - - -
21.06.2018 01:00:00 - - - - - - -
21.06.2018 00:00:00 - - - - - - -
20.06.2018 23:00:00 - - - - - - -
20.06.2018 22:00:00 - - - - - - -
20.06.2018 21:00:00 - - - - - - -
20.06.2018 20:00:00 28,6 17,5 0 0 N 1018,0 20
20.06.2018 19:00:00 30,0 18,0 - - - - 10
20.06.2018 18:00:00 30,0 18,0 8 4 SSE - 10
20.06.2018 17:00:00 31,0 18,4 5 3 NE 1018,8 20
20.06.2018 16:00:00 31,0 19,0 8 4 E - 10
20.06.2018 15:00:00 31,0 18,0 5 3 NE - 10
20.06.2018 14:00:00 31,4 19,1 8 4 NE 1020,0 20
20.06.2018 13:00:00 31,0 19,0 4 2 SW - 10
20.06.2018 12:00:00 30,0 20,0 4 2 E - 10
20.06.2018 11:00:00 29,2 19,2 5 3 NE 1020,5 20
20.06.2018 10:00:00 28,0 20,0 2 1 NW - 10
20.06.2018 09:00:00 25,0 21,0 2 1 NE - 10
20.06.2018 08:00:00 22,4 19,2 0 0 N 1020,2 20
20.06.2018 07:00:00 - - - - - - -
20.06.2018 06:00:00 - - - - - - -
20.06.2018 05:00:00 - - - - - - -
20.06.2018 04:00:00 - - - - - - -
20.06.2018 03:00:00 - - - - - - -
20.06.2018 02:00:00 - - - - - - -
20.06.2018 01:00:00 - - - - - - -
20.06.2018 00:00:00 - - - - - - -
19.06.2018 23:00:00 - - - - - - -
19.06.2018 22:00:00 - - - - - - -
19.06.2018 21:00:00 - - - - - - -
19.06.2018 20:00:00 29,0 13,3 0 0 N 1018,3 20
19.06.2018 19:00:00 30,0 14,0 5 3 ESE - 10
19.06.2018 18:00:00 31,0 15,0 8 4 NNE - 10
19.06.2018 17:00:00 30,4 14,5 8 4 ESE 1018,9 10
19.06.2018 16:00:00 31,0 15,0 8 4 NE - 10
19.06.2018 15:00:00 31,0 15,0 9 5 NNE - 10
19.06.2018 14:00:00 30,0 15,3 8 4 W 1019,8 10
19.06.2018 13:00:00 30,0 15,0 9 5 NW - 10
19.06.2018 12:00:00 29,0 18,0 - - - - 10
19.06.2018 11:00:00 28,0 20,8 4 2 E 1020,0 10
19.06.2018 10:00:00 25,0 21,0 - - - - 8
19.06.2018 09:00:00 22,0 20,0 - - - - 8
19.06.2018 08:00:00 21,0 18,9 0 0 N 1019,1 7
19.06.2018 07:00:00 - - - - - - -
19.06.2018 06:00:00 - - - - - - -
19.06.2018 05:00:00 - - - - - - -
19.06.2018 04:00:00 - - - - - - -
19.06.2018 03:00:00 - - - - - - -
19.06.2018 02:00:00 - - - - - - -
19.06.2018 01:00:00 - - - - - - -
19.06.2018 00:00:00 - - - - - - -
18.06.2018 23:00:00 - - - - - - -
18.06.2018 22:00:00 - - - - - - -
18.06.2018 21:00:00 - - - - - - -
18.06.2018 20:00:00 27,2 16,5 0 0 N 1015,3 20
18.06.2018 19:00:00 29,0 17,0 - - - - 10
18.06.2018 18:00:00 29,0 17,0 - - - - 10
18.06.2018 17:00:00 29,0 16,9 0 0 N 1015,7 20
18.06.2018 16:00:00 29,0 20,0 - - - - 10
18.06.2018 15:00:00 28,0 21,0 - - - - 10
18.06.2018 14:00:00 28,4 21,4 0 0 N 1016,3 20
18.06.2018 13:00:00 27,0 21,0 4 2 E - 10
18.06.2018 12:00:00 26,0 19,0 - - - - 10
18.06.2018 11:00:00 25,0 18,7 0 0 N 1016,2 20

tt = temperature
td = dewpoint
ff = wind speed
dd = wind direction
ppp = reduced air pressure
vv = visibility

Next stations